Location: Unspecified
(0.0000°N, 0.0000°E)
Time: 19:21:20
(UTC+00:00)

Vanguard 2 - Pass Details

Date: 27 November 2019
Orbit: 553 x 2938 km, 32.9° (Epoch: 08 December)

Event Time Altitude Azimuth Distance (km) Brightness Sun altitude
Rises 06:17:14 0° 284° (WNW) 6,715 11.6 6.9°
Reaches altitude 10° 06:25:12 10° 304° (NW) 5,416 11.3 8.8°
Maximum altitude 06:32:51 15° 334° (NNW) 4,546 11.1 10.6°
Drops below altitude 10° 06:39:20 10° 5° (N) 4,446 11.3 12.1°
Sets 06:44:42 0° 28° (NNE) 4,932 11.7 13.3°
